• In Austria
  • List of Countries
  • For 7 days
  • Water Temperature
  • Satellite Maps
  • Weather Map
  • News
  • Weather Widgets
  • user-avatar
    Login

    Hourly Weather Prutz

    Today, 25 February, Sunday

    Time Temperature Precipitation Wind Pressure Humidity
    00:00 -8°C° 0 mm 1 mps 627 mmHg 90%
    01:00 -9°C° 0 mm 1 mps 627 mmHg 89%
    02:00 -9°C° 0 mm 1 mps 627 mmHg 89%
    03:00 -10°C° 0 mm 1 mps 626 mmHg 88%
    04:00 -10°C° 0 mm 1 mps 626 mmHg 87%
    05:00 -11°C° 0 mm 1 mps 626 mmHg 87%
    06:00 -11°C° 0 mm 1 mps 626 mmHg 87%
    07:00 -12°C° 0 mm 1 mps 626 mmHg 95%
    08:00 -13°C° 0 mm 2 mps 626 mmHg 91%
    09:00 -12°C° 0 mm 2 mps 627 mmHg 87%
    10:00 -10°C° 0 mm 2 mps 627 mmHg 83%
    11:00 -9°C° 0 mm 2 mps 627 mmHg 81%
    12:00 -9°C° 0 mm 2 mps 627 mmHg 78%
    13:00 -10°C° 0 mm 3 mps 628 mmHg 75%
    14:00 -10°C° 0 mm 3 mps 627 mmHg 77%
    15:00 -12°C° 0 mm 3 mps 627 mmHg 79%
    16:00 -12°C° 0 mm 3 mps 627 mmHg 82%
    17:00 -13°C° 0 mm 2 mps 626 mmHg 85%
    18:00 -15°C° 0 mm 2 mps 626 mmHg 89%
    19:00 -17°C° 0 mm 2 mps 626 mmHg 93%
    20:00 -17°C° 0 mm 1 mps 625 mmHg 92%
    21:00 -18°C° 0 mm 1 mps 625 mmHg 91%
    22:00 -19°C° 0 mm 1 mps 625 mmHg 90%
    23:00 -19°C° 0 mm 1 mps 624 mmHg 88%

    Tomorrow, 26 February, Monday

    Time Temperature Precipitation Wind Pressure Humidity
    00:00 -20°C° 0 mm 1 mps 624 mmHg 86%
    01:00 -21°C° 0 mm 1 mps 624 mmHg 84%
    02:00 -21°C° 0 mm 1 mps 624 mmHg 83%
    03:00 -21°C° 0 mm 1 mps 623 mmHg 82%
    04:00 -22°C° 0 mm 1 mps 623 mmHg 81%
    05:00 -22°C° 0 mm 1 mps 623 mmHg 81%
    06:00 -22°C° 0 mm 1 mps 623 mmHg 82%
    07:00 -23°C° 0 mm 1 mps 623 mmHg 82%
    08:00 -24°C° 0 mm 2 mps 624 mmHg 79%
    09:00 -21°C° 0 mm 2 mps 624 mmHg 77%
    10:00 -18°C° 0 mm 2 mps 625 mmHg 75%
    11:00 -18°C° 0 mm 2 mps 625 mmHg 74%
    12:00 -18°C° 0 mm 3 mps 624 mmHg 73%
    13:00 -17°C° 0 mm 3 mps 624 mmHg 73%
    14:00 -17°C° 0 mm 3 mps 624 mmHg 75%
    15:00 -17°C° 0 mm 3 mps 624 mmHg 77%
    16:00 -18°C° 0 mm 3 mps 624 mmHg 80%
    17:00 -19°C° 0 mm 3 mps 623 mmHg 84%
    18:00 -20°C° 0 mm 2 mps 623 mmHg 88%
    19:00 -21°C° 0 mm 2 mps 623 mmHg 91%
    20:00 -23°C° 0 mm 2 mps 622 mmHg 91%
    21:00 -21°C° 0 mm 1 mps 622 mmHg 92%
    22:00 -22°C° 0 mm 1 mps 622 mmHg 92%
    23:00 -22°C° 0 mm 1 mps 622 mmHg 90%

    Day after tomorrow, 27 February, Tuesday

    Time Temperature Precipitation Wind Pressure Humidity
    00:00 -22°C° 0 mm 1 mps 621 mmHg 89%
    01:00 -23°C° 0 mm 1 mps 621 mmHg 88%
    02:00 -23°C° 0 mm 1 mps 621 mmHg 87%
    03:00 -23°C° 0 mm 1 mps 621 mmHg 86%
    04:00 -23°C° 0 mm 1 mps 620 mmHg 85%
    05:00 -23°C° 0 mm 1 mps 620 mmHg 85%
    06:00 -23°C° 0 mm 1 mps 620 mmHg 84%
    07:00 -23°C° 0 mm 1 mps 620 mmHg 84%
    08:00 -21°C° 0 mm 1 mps 621 mmHg 81%
    09:00 -19°C° 0 mm 1 mps 622 mmHg 78%
    10:00 -16°C° 0 mm 1 mps 623 mmHg 74%
    11:00 -15°C° 0 mm 1 mps 623 mmHg 73%
    12:00 -14°C° 0 mm 1 mps 623 mmHg 72%
    13:00 -15°C° 0 mm 2 mps 623 mmHg 71%
    14:00 -15°C° 0.1 mm 2 mps 623 mmHg 74%
    15:00 -15°C° 0.1 mm 2 mps 623 mmHg 77%
    16:00 -15°C° 0.1 mm 2 mps 623 mmHg 79%
    17:00 -17°C° 0.1 mm 2 mps 622 mmHg 84%
    18:00 -16°C° 0.1 mm 1 mps 622 mmHg 89%
    19:00 -18°C° 0.1 mm 1 mps 622 mmHg 94%
    20:00 -19°C° 0 mm 1 mps 622 mmHg 93%
    21:00 -20°C° 0 mm 1 mps 622 mmHg 93%
    22:00 -20°C° 0 mm 1 mps 622 mmHg 92%
    23:00 -21°C° 0 mm 1 mps 622 mmHg 90%

    28 February, Wednesday

    Time Temperature Precipitation Wind Pressure Humidity
    00:00 -21°C° 0 mm 1 mps 622 mmHg 87%
    01:00 -24°C° 0 mm 2 mps 622 mmHg 85%
    02:00 -24°C° 0 mm 2 mps 622 mmHg 84%
    03:00 -24°C° 0 mm 2 mps 623 mmHg 83%
    04:00 -24°C° 0 mm 2 mps 623 mmHg 82%
    05:00 -24°C° 0 mm 2 mps 623 mmHg 81%
    06:00 -21°C° 0 mm 1 mps 623 mmHg 80%
    07:00 -21°C° 0 mm 1 mps 623 mmHg 79%
    08:00 -18°C° 0 mm 1 mps 624 mmHg 75%
    09:00 -15°C° 0 mm 1 mps 625 mmHg 70%
    10:00 -12°C° 0 mm 1 mps 626 mmHg 65%
    11:00 -10°C° 0 mm 1 mps 626 mmHg 63%
    12:00 -10°C° 0 mm 2 mps 627 mmHg 62%
    13:00 -8°C° 0 mm 2 mps 627 mmHg 60%
    14:00 -8°C° 0 mm 2 mps 627 mmHg 63%
    15:00 -8°C° 0 mm 2 mps 627 mmHg 65%
    16:00 -8°C° 0 mm 2 mps 626 mmHg 68%
    17:00 -10°C° 0 mm 2 mps 626 mmHg 74%
    18:00 -12°C° 0 mm 2 mps 626 mmHg 79%
    19:00 -14°C° 0 mm 2 mps 626 mmHg 85%
    20:00 -15°C° 0 mm 2 mps 626 mmHg 84%
    21:00 -16°C° 0 mm 3 mps 626 mmHg 83%
    22:00 -17°C° 0 mm 3 mps 626 mmHg 83%
    23:00 -16°C° 0 mm 3 mps 626 mmHg 82%

    1 March, Thursday

    Time Temperature Precipitation Wind Pressure Humidity
    00:00 -16°C° 0 mm 3 mps 626 mmHg 81%
    01:00 -16°C° 0 mm 3 mps 626 mmHg 80%
    02:00 -15°C° 0 mm 3 mps 625 mmHg 79%
    03:00 -15°C° 0 mm 3 mps 625 mmHg 78%
    04:00 -15°C° 0 mm 3 mps 625 mmHg 78%
    05:00 -14°C° 0 mm 3 mps 624 mmHg 78%
    06:00 -14°C° 0 mm 3 mps 624 mmHg 78%
    07:00 -14°C° 0 mm 3 mps 624 mmHg 79%
    08:00 -12°C° 0 mm 3 mps 624 mmHg 78%
    09:00 -8°C° 0 mm 3 mps 625 mmHg 77%
    10:00 -6°C° 0 mm 3 mps 625 mmHg 76%
    11:00 -5°C° 0.1 mm 3 mps 625 mmHg 78%
    12:00 -4°C° 0.1 mm 3 mps 625 mmHg 80%
    13:00 -2°C° 0.1 mm 3 mps 625 mmHg 81%
    14:00 -2°C° 0.2 mm 3 mps 624 mmHg 83%
    15:00 -2°C° 0.2 mm 3 mps 624 mmHg 84%
    16:00 -4°C° 0.2 mm 3 mps 624 mmHg 86%
    17:00 -4°C° 0.1 mm 3 mps 623 mmHg 87%
    18:00 -5°C° 0.1 mm 3 mps 623 mmHg 88%
    19:00 -6°C° 0.1 mm 3 mps 623 mmHg 90%
    20:00 -6°C° 0.1 mm 3 mps 623 mmHg 89%
    21:00 -6°C° 0.1 mm 3 mps 623 mmHg 88%
    22:00 -6°C° 0.1 mm 3 mps 623 mmHg 88%
    23:00 -6°C° 0.1 mm 3 mps 623 mmHg 87%

    2 March, Friday

    Time Temperature Precipitation Wind Pressure Humidity
    00:00 -6°C° 0.1 mm 3 mps 623 mmHg 86%
    01:00 -6°C° 0.1 mm 3 mps 622 mmHg 86%
    02:00 -7°C° 0 mm 3 mps 622 mmHg 85%
    03:00 -7°C° 0 mm 3 mps 621 mmHg 84%
    04:00 -7°C° 0 mm 3 mps 621 mmHg 84%
    05:00 -6°C° 0 mm 2 mps 621 mmHg 83%
    06:00 -6°C° 0 mm 2 mps 621 mmHg 83%
    07:00 -5°C° 0 mm 2 mps 621 mmHg 83%
    08:00 -3°C° 0 mm 2 mps 622 mmHg 83%
    09:00 -1°C° 0 mm 2 mps 622 mmHg 82%
    10:00 +3°C° 0 mm 1 mps 623 mmHg 82%
    11:00 +4°C° 0 mm 1 mps 623 mmHg 84%
    12:00 +5°C° 0 mm 1 mps 622 mmHg 85%
    13:00 +5°C° 0 mm 1 mps 622 mmHg 87%
    14:00 +4°C° 0 mm 2 mps 622 mmHg 88%
    15:00 +4°C° 0 mm 2 mps 622 mmHg 89%
    16:00 +4°C° 0 mm 2 mps 622 mmHg 90%
    17:00 +3°C° 0 mm 2 mps 622 mmHg 90%
    18:00 +1°C° 0 mm 2 mps 621 mmHg 90%
    19:00 -1°C° 0 mm 2 mps 621 mmHg 91%
    20:00 -1°C° 0.1 mm 2 mps 621 mmHg 90%
    21:00 -1°C° 0.1 mm 2 mps 621 mmHg 89%
    22:00 -1°C° 0.1 mm 2 mps 621 mmHg 88%
    23:00 -1°C° 0.1 mm 2 mps 621 mmHg 88%
    Show more